• In Hungary
  • List of Countries
  • For 7 days
  • Water Temperature
  • Satellite Maps
  • Weather Map
  • News
  • Weather Widgets
  • user-avatar
    Login

    Hourly Weather Ravda

    Today, 17 October, Tuesday

    Time Temperature Precipitation Wind Pressure Humidity
    00:00 +15°C° 0 mm 1 mps 771 mmHg 82%
    01:00 +15°C° 0 mm 1 mps 770 mmHg 83%
    02:00 +15°C° 0 mm 1 mps 770 mmHg 83%
    03:00 +15°C° 0 mm 1 mps 770 mmHg 83%
    04:00 +14°C° 0 mm 1 mps 770 mmHg 83%
    05:00 +14°C° 0 mm 2 mps 770 mmHg 83%
    06:00 +15°C° 0 mm 2 mps 770 mmHg 79%
    07:00 +16°C° 0 mm 2 mps 770 mmHg 74%
    08:00 +17°C° 0 mm 2 mps 770 mmHg 70%
    09:00 +19°C° 0 mm 2 mps 770 mmHg 60%
    10:00 +23°C° 0 mm 2 mps 770 mmHg 51%
    11:00 +25°C° 0 mm 2 mps 770 mmHg 42%
    12:00 +26°C° 0 mm 2 mps 769 mmHg 38%
    13:00 +27°C° 0 mm 2 mps 769 mmHg 35%
    14:00 +28°C° 0 mm 2 mps 769 mmHg 32%
    15:00 +26°C° 0 mm 2 mps 768 mmHg 36%
    16:00 +25°C° 0 mm 2 mps 768 mmHg 40%
    17:00 +24°C° 0 mm 2 mps 768 mmHg 44%
    18:00 +21°C° 0 mm 2 mps 768 mmHg 48%
    19:00 +20°C° 0 mm 2 mps 768 mmHg 51%
    20:00 +20°C° 0 mm 1 mps 768 mmHg 54%
    21:00 +19°C° 0 mm 1 mps 768 mmHg 54%
    22:00 +19°C° 0 mm 1 mps 768 mmHg 54%
    23:00 +19°C° 0 mm 1 mps 768 mmHg 53%

    Tomorrow, 18 October, Wednesday

    Time Temperature Precipitation Wind Pressure Humidity
    00:00 +18°C° 0 mm 1 mps 768 mmHg 54%
    01:00 +16°C° 0 mm 0 mps 768 mmHg 55%
    02:00 +16°C° 0 mm 0 mps 767 mmHg 56%
    03:00 +15°C° 0 mm 0 mps 767 mmHg 57%
    04:00 +15°C° 0 mm 0 mps 767 mmHg 58%
    05:00 +15°C° 0 mm 0 mps 767 mmHg 59%
    06:00 +16°C° 0 mm 0 mps 767 mmHg 58%
    07:00 +17°C° 0 mm 0 mps 767 mmHg 56%
    08:00 +18°C° 0 mm 0 mps 767 mmHg 55%
    09:00 +22°C° 0 mm 1 mps 767 mmHg 50%
    10:00 +24°C° 0 mm 1 mps 767 mmHg 45%
    11:00 +25°C° 0 mm 1 mps 767 mmHg 40%
    12:00 +26°C° 0 mm 1 mps 766 mmHg 39%
    13:00 +27°C° 0 mm 2 mps 766 mmHg 37%
    14:00 +27°C° 0 mm 2 mps 765 mmHg 36%
    15:00 +26°C° 0 mm 2 mps 765 mmHg 41%
    16:00 +24°C° 0 mm 2 mps 765 mmHg 47%
    17:00 +23°C° 0 mm 2 mps 764 mmHg 52%
    18:00 +20°C° 0 mm 2 mps 764 mmHg 56%
    19:00 +20°C° 0 mm 1 mps 764 mmHg 61%
    20:00 +18°C° 0 mm 1 mps 764 mmHg 65%
    21:00 +18°C° 0 mm 1 mps 764 mmHg 66%
    22:00 +18°C° 0 mm 1 mps 764 mmHg 67%
    23:00 +16°C° 0 mm 1 mps 764 mmHg 68%

    Day after tomorrow, 19 October, Thursday

    Time Temperature Precipitation Wind Pressure Humidity
    00:00 +16°C° 0 mm 1 mps 764 mmHg 68%
    01:00 +15°C° 0 mm 0 mps 764 mmHg 69%
    02:00 +14°C° 0 mm 0 mps 764 mmHg 70%
    03:00 +14°C° 0 mm 0 mps 764 mmHg 70%
    04:00 +14°C° 0 mm 0 mps 764 mmHg 70%
    05:00 +13°C° 0 mm 0 mps 763 mmHg 70%
    06:00 +14°C° 0 mm 0 mps 764 mmHg 66%
    07:00 +15°C° 0 mm 0 mps 764 mmHg 63%
    08:00 +16°C° 0 mm 0 mps 764 mmHg 59%
    09:00 +19°C° 0 mm 0 mps 764 mmHg 51%
    10:00 +23°C° 0 mm 1 mps 764 mmHg 44%
    11:00 +25°C° 0 mm 1 mps 763 mmHg 36%
    12:00 +26°C° 0 mm 1 mps 763 mmHg 34%
    13:00 +27°C° 0 mm 2 mps 763 mmHg 32%
    14:00 +27°C° 0 mm 2 mps 763 mmHg 29%
    15:00 +26°C° 0 mm 2 mps 763 mmHg 35%
    16:00 +24°C° 0 mm 2 mps 762 mmHg 41%
    17:00 +23°C° 0 mm 2 mps 762 mmHg 47%
    18:00 +20°C° 0 mm 2 mps 762 mmHg 53%
    19:00 +19°C° 0 mm 2 mps 763 mmHg 60%
    20:00 +18°C° 0 mm 2 mps 763 mmHg 66%
    21:00 +17°C° 0 mm 2 mps 763 mmHg 68%
    22:00 +18°C° 0 mm 1 mps 763 mmHg 70%
    23:00 +16°C° 0 mm 1 mps 763 mmHg 71%

    20 October, Friday

    Time Temperature Precipitation Wind Pressure Humidity
    00:00 +16°C° 0 mm 1 mps 763 mmHg 71%
    01:00 +16°C° 0 mm 1 mps 763 mmHg 71%
    02:00 +16°C° 0 mm 1 mps 763 mmHg 72%
    03:00 +15°C° 0 mm 1 mps 763 mmHg 71%
    04:00 +15°C° 0 mm 1 mps 763 mmHg 70%
    05:00 +15°C° 0 mm 1 mps 763 mmHg 70%
    06:00 +16°C° 0 mm 1 mps 763 mmHg 66%
    07:00 +18°C° 0 mm 1 mps 763 mmHg 62%
    08:00 +19°C° 0 mm 1 mps 763 mmHg 58%
    09:00 +21°C° 0 mm 1 mps 763 mmHg 50%
    10:00 +23°C° 0 mm 1 mps 763 mmHg 43%
    11:00 +26°C° 0 mm 1 mps 764 mmHg 35%
    12:00 +26°C° 0 mm 1 mps 763 mmHg 32%
    13:00 +27°C° 0 mm 1 mps 763 mmHg 30%
    14:00 +28°C° 0 mm 2 mps 763 mmHg 28%
    15:00 +27°C° 0 mm 2 mps 763 mmHg 32%
    16:00 +25°C° 0 mm 2 mps 763 mmHg 36%
    17:00 +23°C° 0 mm 2 mps 763 mmHg 40%
    18:00 +21°C° 0 mm 2 mps 763 mmHg 43%
    19:00 +20°C° 0 mm 2 mps 763 mmHg 46%
    20:00 +19°C° 0 mm 2 mps 764 mmHg 49%
    21:00 +20°C° 0 mm 1 mps 764 mmHg 49%
    22:00 +19°C° 0 mm 1 mps 764 mmHg 50%
    23:00 +19°C° 0 mm 1 mps 764 mmHg 51%

    21 October, Saturday

    Time Temperature Precipitation Wind Pressure Humidity
    00:00 +19°C° 0 mm 1 mps 764 mmHg 51%
    01:00 +18°C° 0 mm 1 mps 764 mmHg 51%
    02:00 +18°C° 0 mm 1 mps 764 mmHg 51%
    03:00 +18°C° 0 mm 1 mps 764 mmHg 52%
    04:00 +18°C° 0 mm 1 mps 763 mmHg 53%
    05:00 +16°C° 0 mm 1 mps 763 mmHg 54%
    06:00 +18°C° 0 mm 1 mps 764 mmHg 53%
    07:00 +19°C° 0 mm 1 mps 764 mmHg 52%
    08:00 +20°C° 0 mm 1 mps 764 mmHg 51%
    09:00 +22°C° 0 mm 1 mps 764 mmHg 47%
    10:00 +24°C° 0 mm 1 mps 764 mmHg 42%
    11:00 +26°C° 0 mm 1 mps 764 mmHg 37%
    12:00 +27°C° 0 mm 1 mps 763 mmHg 35%
    13:00 +27°C° 0 mm 1 mps 763 mmHg 34%
    14:00 +28°C° 0 mm 1 mps 763 mmHg 32%
    15:00 +26°C° 0 mm 1 mps 763 mmHg 36%
    16:00 +25°C° 0 mm 1 mps 763 mmHg 40%
    17:00 +24°C° 0 mm 2 mps 762 mmHg 43%
    18:00 +23°C° 0 mm 1 mps 763 mmHg 46%
    19:00 +21°C° 0 mm 1 mps 763 mmHg 49%
    20:00 +20°C° 0 mm 1 mps 763 mmHg 52%
    21:00 +20°C° 0 mm 1 mps 763 mmHg 53%
    22:00 +19°C° 0 mm 1 mps 763 mmHg 54%
    23:00 +19°C° 0 mm 1 mps 763 mmHg 55%

    22 October, Sunday

    Time Temperature Precipitation Wind Pressure Humidity
    00:00 +19°C° 0 mm 1 mps 763 mmHg 56%
    01:00 +18°C° 0 mm 1 mps 763 mmHg 57%
    02:00 +18°C° 0 mm 1 mps 763 mmHg 58%
    03:00 +18°C° 0 mm 1 mps 762 mmHg 58%
    04:00 +16°C° 0 mm 1 mps 762 mmHg 59%
    05:00 +16°C° 0 mm 1 mps 762 mmHg 60%
    06:00 +18°C° 0 mm 1 mps 762 mmHg 58%
    07:00 +19°C° 0 mm 1 mps 762 mmHg 56%
    08:00 +19°C° 0 mm 1 mps 762 mmHg 54%
    09:00 +22°C° 0 mm 1 mps 762 mmHg 48%
    10:00 +24°C° 0 mm 1 mps 762 mmHg 43%
    11:00 +26°C° 0 mm 1 mps 762 mmHg 37%
    12:00 +26°C° 0 mm 1 mps 761 mmHg 35%
    13:00 +27°C° 0 mm 2 mps 761 mmHg 34%
    14:00 +27°C° 0 mm 2 mps 760 mmHg 32%
    15:00 +26°C° 0 mm 2 mps 760 mmHg 36%
    16:00 +25°C° 0 mm 3 mps 760 mmHg 41%
    17:00 +22°C° 0 mm 3 mps 759 mmHg 45%
    18:00 +21°C° 0 mm 3 mps 760 mmHg 49%
    19:00 +20°C° 0 mm 3 mps 760 mmHg 53%
    20:00 +18°C° 0 mm 3 mps 760 mmHg 57%
    21:00 +18°C° 0 mm 3 mps 759 mmHg 58%
    22:00 +17°C° 0 mm 3 mps 759 mmHg 59%
    23:00 +17°C° 0 mm 2 mps 759 mmHg 60%
    Show more